• In Belarus
  • List of Countries
  • For 7 days
  • Water Temperature
  • Weather Map
  • Weather Widgets
  • user-avatar
    Login

    Hourly Weather Takeo

    Today, 24 February, Monday

    Time Temperature Precipitation Wind Pressure Humidity
    00:00 +26°C° 0 mm 3 mps 760 mmHg 60%
    01:00 +25°C° 0 mm 2 mps 760 mmHg 66%
    02:00 +24°C° 0 mm 1 mps 759 mmHg 68%
    03:00 +24°C° 0 mm 1 mps 759 mmHg 71%
    04:00 +21°C° 0 mm 0 mps 759 mmHg 73%
    05:00 +24°C° 0 mm 1 mps 759 mmHg 72%
    06:00 +24°C° 0 mm 1 mps 759 mmHg 72%
    07:00 +24°C° 0 mm 1 mps 760 mmHg 72%
    08:00 +26°C° 0 mm 2 mps 760 mmHg 63%
    09:00 +28°C° 0 mm 3 mps 760 mmHg 54%
    10:00 +30°C° 0 mm 3 mps 760 mmHg 45%
    11:00 +33°C° 0 mm 3 mps 759 mmHg 38%
    12:00 +35°C° 0 mm 4 mps 758 mmHg 31%
    13:00 +37°C° 0 mm 4 mps 757 mmHg 24%
    14:00 +37°C° 0 mm 4 mps 756 mmHg 23%
    15:00 +38°C° 0 mm 3 mps 756 mmHg 23%
    16:00 +38°C° 0 mm 3 mps 755 mmHg 22%
    17:00 +36°C° 0 mm 3 mps 755 mmHg 26%
    18:00 +34°C° 0 mm 3 mps 756 mmHg 29%
    19:00 +31°C° 0 mm 3 mps 756 mmHg 33%
    20:00 +29°C° 0 mm 3 mps 757 mmHg 40%
    21:00 +28°C° 0 mm 3 mps 757 mmHg 47%
    22:00 +27°C° 0 mm 3 mps 758 mmHg 53%
    23:00 +26°C° 0 mm 3 mps 758 mmHg 60%

    Tomorrow, 25 February, Tuesday

    Time Temperature Precipitation Wind Pressure Humidity
    00:00 +25°C° 0 mm 2 mps 758 mmHg 67%
    01:00 +24°C° 0 mm 2 mps 758 mmHg 74%
    02:00 +24°C° 0 mm 2 mps 758 mmHg 77%
    03:00 +24°C° 0 mm 2 mps 757 mmHg 80%
    04:00 +24°C° 0 mm 1 mps 757 mmHg 82%
    05:00 +24°C° 0 mm 2 mps 758 mmHg 82%
    06:00 +24°C° 0 mm 2 mps 758 mmHg 83%
    07:00 +24°C° 0 mm 2 mps 759 mmHg 83%
    08:00 +27°C° 0 mm 2 mps 759 mmHg 73%
    09:00 +29°C° 0 mm 2 mps 759 mmHg 64%
    10:00 +31°C° 0 mm 3 mps 759 mmHg 54%
    11:00 +34°C° 0 mm 2 mps 758 mmHg 48%
    12:00 +35°C° 0 mm 2 mps 757 mmHg 41%
    13:00 +37°C° 0 mm 2 mps 756 mmHg 34%
    14:00 +37°C° 0 mm 2 mps 756 mmHg 33%
    15:00 +38°C° 0 mm 2 mps 755 mmHg 31%
    16:00 +38°C° 0 mm 2 mps 754 mmHg 30%
    17:00 +36°C° 0 mm 2 mps 755 mmHg 35%
    18:00 +34°C° 0 mm 2 mps 755 mmHg 40%
    19:00 +31°C° 0 mm 2 mps 756 mmHg 45%
    20:00 +30°C° 0 mm 2 mps 756 mmHg 54%
    21:00 +29°C° 0 mm 2 mps 757 mmHg 63%
    22:00 +28°C° 0 mm 3 mps 758 mmHg 73%
    23:00 +27°C° 0 mm 3 mps 758 mmHg 75%

    Day after tomorrow, 26 February, Wednesday

    Time Temperature Precipitation Wind Pressure Humidity
    00:00 +27°C° 0 mm 3 mps 758 mmHg 78%
    01:00 +27°C° 0 mm 3 mps 758 mmHg 80%
    02:00 +26°C° 0 mm 2 mps 757 mmHg 81%
    03:00 +26°C° 0 mm 2 mps 757 mmHg 82%
    04:00 +25°C° 0 mm 2 mps 757 mmHg 83%
    05:00 +26°C° 0 mm 1 mps 757 mmHg 82%
    06:00 +26°C° 0 mm 1 mps 758 mmHg 81%
    07:00 +26°C° 0 mm 1 mps 758 mmHg 80%
    08:00 +28°C° 0 mm 2 mps 759 mmHg 71%
    09:00 +30°C° 0 mm 2 mps 759 mmHg 63%
    10:00 +33°C° 0 mm 3 mps 759 mmHg 54%
    11:00 +35°C° 0 mm 3 mps 758 mmHg 48%
    12:00 +36°C° 0 mm 2 mps 757 mmHg 42%
    13:00 +38°C° 0 mm 2 mps 756 mmHg 36%
    14:00 +38°C° 0 mm 2 mps 756 mmHg 34%
    15:00 +38°C° 0 mm 2 mps 755 mmHg 32%
    16:00 +39°C° 0 mm 1 mps 754 mmHg 30%
    17:00 +36°C° 0 mm 1 mps 755 mmHg 33%
    18:00 +35°C° 0 mm 1 mps 755 mmHg 36%
    19:00 +33°C° 0 mm 1 mps 756 mmHg 40%
    20:00 +32°C° 0 mm 2 mps 756 mmHg 49%
    21:00 +30°C° 0 mm 3 mps 757 mmHg 58%
    22:00 +29°C° 0 mm 4 mps 757 mmHg 68%
    23:00 +28°C° 0 mm 4 mps 757 mmHg 70%

    27 February, Thursday

    Time Temperature Precipitation Wind Pressure Humidity
    00:00 +28°C° 0 mm 4 mps 757 mmHg 72%
    01:00 +27°C° 0 mm 4 mps 757 mmHg 74%
    02:00 +26°C° 0 mm 4 mps 757 mmHg 76%
    03:00 +26°C° 0 mm 3 mps 757 mmHg 78%
    04:00 +25°C° 0 mm 2 mps 756 mmHg 81%
    05:00 +26°C° 0 mm 2 mps 757 mmHg 80%
    06:00 +26°C° 0 mm 2 mps 757 mmHg 80%
    07:00 +26°C° 0 mm 2 mps 758 mmHg 79%
    08:00 +28°C° 0 mm 2 mps 758 mmHg 69%
    09:00 +30°C° 0 mm 2 mps 758 mmHg 60%
    10:00 +33°C° 0 mm 3 mps 759 mmHg 50%
    11:00 +35°C° 0 mm 2 mps 758 mmHg 45%
    12:00 +36°C° 0 mm 2 mps 757 mmHg 40%
    13:00 +37°C° 0 mm 1 mps 756 mmHg 35%
    14:00 +38°C° 0 mm 2 mps 755 mmHg 34%
    15:00 +38°C° 0 mm 2 mps 755 mmHg 33%
    16:00 +38°C° 0 mm 2 mps 754 mmHg 31%
    17:00 +37°C° 0 mm 2 mps 755 mmHg 36%
    18:00 +35°C° 0 mm 2 mps 755 mmHg 40%
    19:00 +32°C° 0 mm 2 mps 756 mmHg 45%
    20:00 +31°C° 0 mm 3 mps 756 mmHg 52%
    21:00 +30°C° 0 mm 3 mps 757 mmHg 59%
    22:00 +29°C° 0 mm 4 mps 757 mmHg 66%
    23:00 +28°C° 0 mm 3 mps 757 mmHg 70%

    28 February, Friday

    Time Temperature Precipitation Wind Pressure Humidity
    00:00 +27°C° 0 mm 3 mps 757 mmHg 73%
    01:00 +26°C° 0 mm 3 mps 757 mmHg 76%
    02:00 +25°C° 0 mm 3 mps 757 mmHg 79%
    03:00 +25°C° 0 mm 2 mps 757 mmHg 82%
    04:00 +24°C° 0 mm 2 mps 756 mmHg 85%
    05:00 +24°C° 0 mm 2 mps 757 mmHg 86%
    06:00 +25°C° 0 mm 2 mps 757 mmHg 86%
    07:00 +25°C° 0 mm 1 mps 757 mmHg 86%
    08:00 +27°C° 0 mm 2 mps 758 mmHg 74%
    09:00 +29°C° 0 mm 2 mps 758 mmHg 63%
    10:00 +31°C° 0 mm 3 mps 758 mmHg 52%
    11:00 +34°C° 0 mm 2 mps 757 mmHg 46%
    12:00 +35°C° 0 mm 2 mps 756 mmHg 41%
    13:00 +37°C° 0 mm 2 mps 755 mmHg 35%
    14:00 +37°C° 0 mm 2 mps 754 mmHg 34%
    15:00 +38°C° 0 mm 2 mps 754 mmHg 32%
    16:00 +38°C° 0 mm 2 mps 753 mmHg 30%
    17:00 +36°C° 0 mm 1 mps 754 mmHg 33%
    18:00 +34°C° 0 mm 1 mps 754 mmHg 36%
    19:00 +33°C° 0 mm 1 mps 754 mmHg 38%
    20:00 +31°C° 0 mm 2 mps 755 mmHg 46%
    21:00 +30°C° 0 mm 3 mps 755 mmHg 53%
    22:00 +28°C° 0 mm 4 mps 756 mmHg 60%
    23:00 +28°C° 0 mm 4 mps 756 mmHg 64%

    29 February, Saturday

    Time Temperature Precipitation Wind Pressure Humidity
    00:00 +27°C° 0 mm 4 mps 756 mmHg 67%
    01:00 +26°C° 0 mm 4 mps 756 mmHg 70%
    02:00 +26°C° 0 mm 3 mps 756 mmHg 73%
    03:00 +25°C° 0 mm 3 mps 756 mmHg 76%
    04:00 +25°C° 0 mm 2 mps 755 mmHg 79%
    05:00 +25°C° 0 mm 2 mps 756 mmHg 79%
    06:00 +25°C° 0 mm 2 mps 756 mmHg 80%
    07:00 +25°C° 0 mm 2 mps 757 mmHg 80%
    08:00 +28°C° 0 mm 2 mps 757 mmHg 70%
    09:00 +30°C° 0 mm 3 mps 757 mmHg 59%
    10:00 +33°C° 0 mm 3 mps 758 mmHg 49%
    11:00 +34°C° 0 mm 3 mps 756 mmHg 43%
    12:00 +36°C° 0 mm 3 mps 755 mmHg 38%
    13:00 +37°C° 0 mm 3 mps 754 mmHg 32%
    14:00 +38°C° 0 mm 2 mps 754 mmHg 30%
    15:00 +38°C° 0 mm 2 mps 753 mmHg 28%
    16:00 +39°C° 0 mm 1 mps 753 mmHg 27%
    17:00 +36°C° 0 mm 1 mps 753 mmHg 30%
    18:00 +34°C° 0 mm 1 mps 754 mmHg 34%
    19:00 +33°C° 0 mm 1 mps 754 mmHg 38%
    20:00 +31°C° 0 mm 2 mps 755 mmHg 49%
    21:00 +30°C° 0 mm 4 mps 756 mmHg 61%
    22:00 +28°C° 0 mm 5 mps 756 mmHg 72%
    23:00 +28°C° 0 mm 4 mps 756 mmHg 74%
    Show more